Regional Weather Roundup
Issued by NWS Newport/Morehead, NC

Current Version | Previous Version | Text Only | Print | Product List | Glossary Off
Versions: 1 2 3 4 5 6 7 8 9 10 11 12 13 14 15 16 17 18 19 20 21 22 23 24 25 26 27 28 29 30 31 32 33 34 35 36 37 38 39 40 41 42 43 44 45 46 47 48 49 50
000 ASUS42 KMHX 241913 RWRMHX WEATHER ROUNDUP FOR EASTERN NORTH CAROLINA NATIONAL WEATHER SERVICE NEWPORT/MOREHEAD CITY NC 300 PM EDT SAT SEP 24 2016 NOTE: "FAIR" INDICATES FEW OR NO CLOUDS BELOW 12,000 FEET WITH NO SIGNIFICANT WEATHER AND/OR OBSTRUCTIONS TO VISIBILITY NCZ015>017-031-032-045>047-102-103-242000- NORTH COAST CITY SKY/WX TMP DP RH WIND PRES REMARKS EDENTON SUNNY 89 65 46 W5 30.01F ELIZABETH CITY SUNNY 88 66 48 VRB5 30.00F KITTY HAWK NOT AVBL MANTEO SUNNY 82 69 63 N5 30.01F $$ NCZ045>047-081-094-103-104-242000- CENTRAL COAST CITY SKY/WX TMP DP RH WIND PRES REMARKS FRISCO SUNNY 84 64 50 VRB7 30.01S $$ NCZ095-097-098-100-101-242000- SOUTHERN COAST CITY SKY/WX TMP DP RH WIND PRES REMARKS BEAUFORT SUNNY 87 68 52 VRB6 30.00F CEDAR ISLAND NOT AVBL JACKSONVILLE SUNNY 86 64 47 N6 30.00F PINEY ISLAND CLEAR N/A N/A N/A E7 30.00F WILMINGTON SUNNY 87 66 49 CALM 30.00F $$ NCZ011>013-027>030-043-044-078>080-089-090>093-098-242000- COASTAL PLAIN CITY SKY/WX TMP DP RH WIND PRES REMARKS AHOSKIE SUNNY 86 67 53 CALM 30.01F CLINTON SUNNY 88 68 52 CALM 30.02F ELIZABETHTOWN SUNNY 87 63 44 W3 30.02F GOLDSBORO SUNNY 88 67 49 SW5 30.00F GREENVILLE SUNNY 88 68 51 CALM 30.03F HAVELOCK SUNNY 86 69 56 VRB3 30.01F KENANSVILLE SUNNY 86 66 51 CALM 30.01F KINSTON SUNNY 88 64 45 N3 30.01F NEW BERN SUNNY 86 66 51 NE3 30.02F RICHLANDS SUNNY 87 67 51 VRB5 30.01F ROCKY MOUNT SUNNY 88 67 49 CALM 30.01F WASHINGTON SUNNY 86 68 56 CALM 30.01F WHITEVILLE SUNNY 86 66 52 CALM 30.01F $$ AMZ130-135-150-152-154-156-158-170-250-252-270-ANZ085-086-088-633-658-670-242000- MARINE OBSERVATIONS STATION/POSITION TIME TEMP WIND PRES WAVE SWELL AIR SEA DIR/SP/G HT/PER HT/PER (UTC) (F) (DEG/KT/KT) (MB) (FT/S) (FT/S) CHESAPEAKE LIGHT NOT AVBL 64 E VA BEACH 1850 76 76 350/ 10/ 12 1015.6 4/11 3/11 DUCK 1842 81 78 60/ 5/ 5 1015.5 2 E DUCK 1841 79 N/A 4/11 2/11 OREGON INLET 1842 80 80 10/ 6/ 10 1016.1 13E OREGON INLT 1830 78 N/A 4/11 3/11 HATTERAS CG 1842 80 82 10/ 4/ 6 1016.0 DIAMOND BUOY 1850 79 81 10/ 8/ 10 1016.1 5/10 5/10 CAPE LOOKOUT 1900 79 80/ 6/ 7 1015.8 BEAUFORT LAB 1842 84 79 310/ 5/ 9 1015.3 30 SE NEW RVR IN 1808 79 82 40/ 6/ 10 1016.2 30 SE NEW RVR IN 1855 82 N/A 3/11 2/11 27 SE WRIGHTSVLE 1808 79 82 10/ 6/ 10 1016.6 5 SE WRIGHTSVLE 1808 80 81 90/ 6/ 8 1017.5 225 S CAPE HAT 1850 83 83 290/ 8/ 12 1015.1 4/10 3/10 41 SE CHARLESTON 1850 81 83 20/ 10/ 14 1015.7 3/11 3/11 $$

USA.gov is the U.S. government's official web portal to all federal, state and local government web resources and services.